Tracking 21094 objects as of 11-Aug-2020
HD Live streaming from Space Station
objects crossing your sky now
Track the most recent launched group of Starlink satellites

OSCAR 32

Track OSCAR 32 now!
10-day predictions
OSCAR 32 is classified as:


NORAD ID: 19071
Int'l Code: 1988-033B
Perigee: 1,020.8 km
Apogee: 1,304.7 km
Inclination: 90.4 °
Period: 108.5 minutes
Semi major axis: 7533 km
RCS: 1.686 m2 (large)
Launch date: April 26, 1988
Source: United States (US)
Launch site: AIR FORCE WESTERN TEST RANGE (AFWTR)
aabbcc
Your satellite tracking list
Your tracking list is empty




NASA's NSSDC Master Catalog

Two Line Element Set (TLE):
1 19071U 88033B   20224.50041441  .00000062  00000-0  10872-3 0  9998
2 19071  90.3619 314.2346 0188432 187.9154 183.5023 13.27653172564411
Source of the keplerian elements: AFSPC